Погода в Козе

Россия / Ярославская область     58°27′16″N   39°55′54″E
темп.,
°C
ветер,
м/с
пор.,
м/с
влажн.,
%
обл.,
%
осадки,
мм/ч
давл.,
гПа
погр.,
м
6 марта, сб
сб600:00−12з269688 0.2 1012218
03:00−16зсз229884 0.3 101423
06:00−18сз239620 0.0 101430
09:00−15зсз249426 0.0 1014170
12:00−10зсз248770 0.0 1015488
15:00−8з358485 0.1 1013716
18:00−13юз239480 0.0 101222
21:00−12юз389677 0.0 1010166
7 марта, вс
вс700:00−12ююз4109329 0.0 1007259
03:00−10ю5138863 0.0 1003469
06:00−9ю51293100 0.4 998697
09:00−7ю51193100 1.1 995698
12:00−5ююв51093100 1.2 991782
15:00−4ююв5992100 2.0 989747
18:00−5юв3796100 1.2 988417
21:00−6в3696100 2.1 988312
8 марта, пн
пн800:00−7св2497100 1.1 989165
03:00−8ссв2596100 1.6 990154
06:00−8ссв3795100 0.6 991352
09:00−9ссв4991100 1.1 993543
12:00−9с4888100 0.1 996659
15:00−8с5886100 0.2 999869
18:00−11с4992100 0.2 1002657
21:00−12с41091100 0.3 1005615
9 марта, вт
вт900:00−15ссз3994100 0.0 1008390
03:00−19ссз3896100 0.1 1010261
06:00−23ссз389676 0.0 1012231
09:00−22ссз369450 0.0 1014256
12:00−17сз358972 0.0 1015419
15:00−15ссз358686 0.0 1016599
18:00−19сз2395100 0.0 101633
21:00−23ссз239880 0.0 101832
10 марта, ср
ср1000:00−25с22997 0.0 101919
03:00−27с229916 0.0 102019
06:00−28с22980 0.0 102019
09:00−24ссв13940 0.0 1020175
12:00−18св128156 0.0 1020463
15:00−15с017634 0.0 1019617
18:00−20вюв128939 0.0 101820
21:00−23юв229540 0.0 101820